World > North America > United States > Washington

Desert Aire, Washington Regional Weather

Lat: 46.67N, Lon: 119.91W
Wx Zone: WAZ034Web Search
Desert Aire Weather Warning NWS WEATHER ALERT FOR THE DESERT AIRE, WA AREA - Issued: 1100 AM PDT TUE APR 13 2021 Desert Aire Weather Warning  

Our weather pages are very print friendly and they make great conversation starters.

Feedback


°F Click to change Desert Aire hourly weather to Imperial units.Click to change Desert Aire hourly weather to Metric units. °C
Desert Aire Weather Map
UTC Time: 4/13/2021, 20:07
Your Time:

Desert Aire, WA Regional Weather

Expires:202104132000;;500825
ASUS46 KSEW 131920
RWRWA 

WASHINGTON REGIONAL WEATHER ROUNDUP
NATIONAL WEATHER SERVICE SEATTLE WA
1200 PM PDT TUE APR 13 2021

NOTE:"FAIR" INDICATES FEW OR NO CLOUDS BELOW 12,000 FEET WITH NO 
SIGNIFICANT WEATHER AND/OR OBSTRUCTIONS TO VISIBILITY.


WAZ028-034-035-132000-
COLUMBIA BASIN
  
CITY           SKY/WX    TMP DP  RH WIND       PRES   REMARKS
EPHRATA        SUNNY     56  13  18 NE23G33   30.32F                  
MOSES LAKE     SUNNY     58  13  17 NE18G36   30.30F                  
PASCO          SUNNY     62  16  16 NE21G36   30.23F                  
RICHLAND ARPT  CLEAR     62  16  16 NE16G29   30.24F                  
HERMISTON, OR  SUNNY     58  19  22 N14       30.20F                  
$$


SKY/WX - Weather  TMP - Temperature  DP - Dew Point  RH - Relative Humidity
WIND - Wind Direction/Speed PRES - Barometric Pressure VSB - Visibility
WCI - Wind Chill Index E13G22 Wind - East Wind 13 mph/Gusts of 22 mph